Year,Month,Day,Hour,Minute,Value (Times are PST for barometer in hPa)
2013,09,28,00,00,1008.77
2013,09,28,00,01,1008.77
2013,09,28,00,02,1008.74
2013,09,28,00,03,1008.74
2013,09,28,00,04,1008.74
2013,09,28,00,05,1008.77
2013,09,28,00,06,1008.74
2013,09,28,00,07,1008.74
2013,09,28,00,08,1008.77
2013,09,28,00,09,1008.74
2013,09,28,00,10,1008.74
2013,09,28,00,11,1008.70
2013,09,28,00,12,1008.70
2013,09,28,00,13,1008.70
2013,09,28,00,14,1008.71
2013,09,28,00,15,1008.81
2013,09,28,00,16,1008.81
2013,09,28,00,17,1008.81
2013,09,28,00,18,1008.84
2013,09,28,00,19,1008.81
2013,09,28,00,20,1008.81
2013,09,28,00,21,1008.77
2013,09,28,00,22,1008.77
2013,09,28,00,23,1008.74
2013,09,28,00,24,1008.70
2013,09,28,00,25,1008.74
2013,09,28,00,26,1008.77
2013,09,28,00,27,1008.70
2013,09,28,00,28,1008.70
2013,09,28,00,29,1008.67
2013,09,28,00,30,1008.64
2013,09,28,00,31,1008.57
2013,09,28,00,32,1008.57
2013,09,28,00,33,1008.53
2013,09,28,00,34,1008.50
2013,09,28,00,35,1008.53
2013,09,28,00,36,1008.43
2013,09,28,00,37,1008.40
2013,09,28,00,38,1008.40
2013,09,28,00,39,1008.40
2013,09,28,00,40,1008.43
2013,09,28,00,41,1008.47
2013,09,28,00,42,1008.43
2013,09,28,00,43,1008.42
2013,09,28,00,44,1008.33
2013,09,28,00,45,1008.37
2013,09,28,00,46,1008.33
2013,09,28,00,47,1008.33
2013,09,28,00,48,1008.30
2013,09,28,00,49,1008.30
2013,09,28,00,50,1008.26
2013,09,28,00,51,1008.23
2013,09,28,00,52,1008.23
2013,09,28,00,53,1008.16
2013,09,28,00,54,1008.16
2013,09,28,00,55,1008.20
2013,09,28,00,56,1008.13
2013,09,28,00,57,1008.13
2013,09,28,00,58,1008.09
2013,09,28,00,59,1008.13
2013,09,28,01,00,1008.06
2013,09,28,01,01,1008.03
2013,09,28,01,02,1007.96
2013,09,28,01,03,1007.93
2013,09,28,01,04,1007.89
2013,09,28,01,05,1007.93
2013,09,28,01,06,1007.96
2013,09,28,01,07,1008.03
2013,09,28,01,08,1008.03
2013,09,28,01,09,1008.03
2013,09,28,01,10,1008.03
2013,09,28,01,11,1007.99
2013,09,28,01,12,1007.96
2013,09,28,01,13,1007.93
2013,09,28,01,14,1007.89
2013,09,28,01,15,1007.82
2013,09,28,01,16,1007.72
2013,09,28,01,17,1007.76
2013,09,28,01,18,1007.79
2013,09,28,01,19,1007.86
2013,09,28,01,20,1007.93
2013,09,28,01,21,1007.93
2013,09,28,01,22,1007.85
2013,09,28,01,23,1007.76
2013,09,28,01,24,1007.72
2013,09,28,01,25,1007.69
2013,09,28,01,26,1007.72
2013,09,28,01,27,1007.76
2013,09,28,01,28,1007.76
2013,09,28,01,29,1007.79
2013,09,28,01,30,1007.76
2013,09,28,01,31,1007.72
2013,09,28,01,32,1007.69
2013,09,28,01,33,1007.62
2013,09,28,01,34,1007.62
2013,09,28,01,35,1007.59
2013,09,28,01,36,1007.62
2013,09,28,01,37,1007.65
2013,09,28,01,38,1007.72
2013,09,28,01,39,1007.76
2013,09,28,01,40,1007.76
2013,09,28,01,41,1007.65
2013,09,28,01,42,1007.55
2013,09,28,01,43,1007.45
2013,09,28,01,44,1007.42
2013,09,28,01,45,1007.42
2013,09,28,01,46,1007.48
2013,09,28,01,47,1007.48
2013,09,28,01,48,1007.59
2013,09,28,01,49,1007.59
2013,09,28,01,50,1007.52
2013,09,28,01,51,1007.42
2013,09,28,01,52,1007.42
2013,09,28,01,53,1007.38
2013,09,28,01,54,1007.35
2013,09,28,01,55,1007.38
2013,09,28,01,56,1007.38
2013,09,28,01,57,1007.38
2013,09,28,01,58,1007.38
2013,09,28,01,59,1007.42
2013,09,28,02,00,1007.38
2013,09,28,02,01,1007.32
2013,09,28,02,02,1007.25
2013,09,28,02,03,1007.21
2013,09,28,02,04,1007.18
2013,09,28,02,05,1007.21
2013,09,28,02,06,1007.25
2013,09,28,02,07,1007.25
2013,09,28,02,08,1007.25
2013,09,28,02,09,1007.21
2013,09,28,02,10,1007.11
2013,09,28,02,11,1007.11
2013,09,28,02,12,1007.15
2013,09,28,02,13,1007.18
2013,09,28,02,14,1007.18
2013,09,28,02,15,1007.18
2013,09,28,02,16,1007.11
2013,09,28,02,17,1007.04
2013,09,28,02,18,1006.98
2013,09,28,02,19,1007.01
2013,09,28,02,20,1007.04
2013,09,28,02,21,1007.01
2013,09,28,02,22,1007.04
2013,09,28,02,23,1007.01
2013,09,28,02,24,1006.94
2013,09,28,02,25,1006.91
2013,09,28,02,26,1006.88
2013,09,28,02,27,1006.84
2013,09,28,02,28,1006.81
2013,09,28,02,29,1006.81
2013,09,28,02,30,1006.81
2013,09,28,02,31,1006.81
2013,09,28,02,32,1006.74
2013,09,28,02,33,1006.74
2013,09,28,02,34,1006.67
2013,09,28,02,35,1006.64
2013,09,28,02,36,1006.64
2013,09,28,02,37,1006.60
2013,09,28,02,38,1006.64
2013,09,28,02,39,1006.64
2013,09,28,02,40,1006.60
2013,09,28,02,41,1006.57
2013,09,28,02,42,1006.47
2013,09,28,02,43,1006.44
2013,09,28,02,44,1006.40
2013,09,28,02,45,1006.37
2013,09,28,02,46,1006.33
2013,09,28,02,47,1006.27
2013,09,28,02,48,1006.23
2013,09,28,02,49,1006.20
2013,09,28,02,50,1006.20
2013,09,28,02,51,1006.16
2013,09,28,02,52,1006.10
2013,09,28,02,53,1006.03
2013,09,28,02,54,1006.03
2013,09,28,02,55,1005.99
2013,09,28,02,56,1006.03
2013,09,28,02,57,1006.03
2013,09,28,02,58,1005.99
2013,09,28,02,59,1005.96
2013,09,28,03,00,1005.93
2013,09,28,03,01,1005.84
2013,09,28,03,02,1005.83
2013,09,28,03,03,1005.79
2013,09,28,03,04,1005.79
2013,09,28,03,05,1005.79
2013,09,28,03,06,1005.79
2013,09,28,03,07,1005.76
2013,09,28,03,08,1005.66
2013,09,28,03,09,1005.69
2013,09,28,03,10,1005.66
2013,09,28,03,11,1005.59
2013,09,28,03,12,1005.52
2013,09,28,03,13,1005.52
2013,09,28,03,14,1005.49
2013,09,28,03,15,1005.49
2013,09,28,03,16,1005.49
2013,09,28,03,17,1005.49
2013,09,28,03,18,1005.45
2013,09,28,03,19,1005.39
2013,09,28,03,20,1005.39
2013,09,28,03,21,1005.35
2013,09,28,03,22,1005.39
2013,09,28,03,23,1005.32
2013,09,28,03,24,1005.28
2013,09,28,03,25,1005.25
2013,09,28,03,26,1005.21
2013,09,28,03,27,1005.11
2013,09,28,03,28,1005.11
2013,09,28,03,29,1005.08
2013,09,28,03,30,1005.05
2013,09,28,03,31,1005.01
2013,09,28,03,32,1005.01
2013,09,28,03,33,1005.01
2013,09,28,03,34,1005.01
2013,09,28,03,35,1005.01
2013,09,28,03,36,1005.05
2013,09,28,03,37,1004.98
2013,09,28,03,38,1005.01
2013,09,28,03,39,1004.98
2013,09,28,03,40,1005.01
2013,09,28,03,41,1005.05
2013,09,28,03,42,1005.01
2013,09,28,03,43,1005.01
2013,09,28,03,44,1005.05
2013,09,28,03,45,1005.01
2013,09,28,03,46,1005.01
2013,09,28,03,47,1005.01
2013,09,28,03,48,1005.01
2013,09,28,03,49,1005.01
2013,09,28,03,50,1004.95
2013,09,28,03,51,1004.95
2013,09,28,03,52,1004.95
2013,09,28,03,53,1004.95
2013,09,28,03,54,1004.98
2013,09,28,03,55,1004.98
2013,09,28,03,56,1004.95
2013,09,28,03,57,1004.95
2013,09,28,03,58,1004.91
2013,09,28,03,59,1004.91
2013,09,28,04,00,1004.81
2013,09,28,04,01,1004.84
2013,09,28,04,02,1004.81
2013,09,28,04,03,1004.78
2013,09,28,04,04,1004.78
2013,09,28,04,05,1004.71
2013,09,28,04,06,1004.74
2013,09,28,04,07,1004.71
2013,09,28,04,08,1004.67
2013,09,28,04,09,1004.67
2013,09,28,04,10,1004.71
2013,09,28,04,11,1004.67
2013,09,28,04,12,1004.67
2013,09,28,04,13,1004.64
2013,09,28,04,14,1004.57
2013,09,28,04,15,1004.50
2013,09,28,04,16,1004.50
2013,09,28,04,17,1004.47
2013,09,28,04,18,1004.44
2013,09,28,04,19,1004.40
2013,09,28,04,20,1004.34
2013,09,28,04,21,1004.30
2013,09,28,04,22,1004.34
2013,09,28,04,23,1004.27
2013,09,28,04,24,1004.27
2013,09,28,04,25,1004.27
2013,09,28,04,26,1004.20
2013,09,28,04,27,1004.17
2013,09,28,04,28,1004.17
2013,09,28,04,29,1004.13
2013,09,28,04,30,1004.10
2013,09,28,04,31,1004.10
2013,09,28,04,32,1004.10
2013,09,28,04,33,1004.13
2013,09,28,04,34,1004.06
2013,09,28,04,35,1004.03
2013,09,28,04,36,1004.00
2013,09,28,04,37,1004.00
2013,09,28,04,38,1003.96
2013,09,28,04,39,1003.96
2013,09,28,04,40,1004.00
2013,09,28,04,41,1004.00
2013,09,28,04,42,1004.00
2013,09,28,04,43,1003.96
2013,09,28,04,44,1003.93
2013,09,28,04,45,1003.93
2013,09,28,04,46,1003.90
2013,09,28,04,47,1003.86
2013,09,28,04,48,1003.86
2013,09,28,04,49,1003.79
2013,09,28,04,50,1003.73
2013,09,28,04,51,1003.69
2013,09,28,04,52,1003.66
2013,09,28,04,53,1003.59
2013,09,28,04,54,1003.56
2013,09,28,04,55,1003.49
2013,09,28,04,56,1003.56
2013,09,28,04,57,1003.46
2013,09,28,04,58,1003.42
2013,09,28,04,59,1003.35
2013,09,28,05,00,1003.32
2013,09,28,05,01,1003.29
2013,09,28,05,02,1003.25
2013,09,28,05,03,1003.29
2013,09,28,05,04,1003.22
2013,09,28,05,05,1003.25
2013,09,28,05,06,1003.22
2013,09,28,05,07,1003.17
2013,09,28,05,08,1003.08
2013,09,28,05,09,1003.12
2013,09,28,05,10,1003.05
2013,09,28,05,11,1003.08
2013,09,28,05,12,1003.08
2013,09,28,05,13,1003.12
2013,09,28,05,14,1003.05
2013,09,28,05,15,1003.01
2013,09,28,05,16,1002.95
2013,09,28,05,17,1002.91
2013,09,28,05,18,1002.81
2013,09,28,05,19,1002.81
2013,09,28,05,20,1002.74
2013,09,28,05,21,1002.78
2013,09,28,05,22,1002.74
2013,09,28,05,23,1002.74
2013,09,28,05,24,1002.68
2013,09,28,05,25,1002.61
2013,09,28,05,26,1002.61
2013,09,28,05,27,1002.64
2013,09,28,05,28,1002.57
2013,09,28,05,29,1002.61
2013,09,28,05,30,1002.57
2013,09,28,05,31,1002.61
2013,09,28,05,32,1002.64
2013,09,28,05,33,1002.68
2013,09,28,05,34,1002.61
2013,09,28,05,35,1002.64
2013,09,28,05,36,1002.61
2013,09,28,05,37,1002.61
2013,09,28,05,38,1002.57
2013,09,28,05,39,1002.57
2013,09,28,05,40,1002.54
2013,09,28,05,41,1002.51
2013,09,28,05,42,1002.51
2013,09,28,05,43,1002.47
2013,09,28,05,44,1002.47
2013,09,28,05,45,1002.44
2013,09,28,05,46,1002.41
2013,09,28,05,47,1002.37
2013,09,28,05,48,1002.37
2013,09,28,05,49,1002.37
2013,09,28,05,50,1002.34
2013,09,28,05,51,1002.30
2013,09,28,05,52,1002.27
2013,09,28,05,53,1002.20
2013,09,28,05,54,1002.20
2013,09,28,05,55,1002.17
2013,09,28,05,56,1002.13
2013,09,28,05,57,1002.17
2013,09,28,05,58,1002.17
2013,09,28,05,59,1002.20
2013,09,28,06,00,1002.17
2013,09,28,06,01,1002.17
2013,09,28,06,02,1002.17
2013,09,28,06,03,1002.13
2013,09,28,06,04,1002.17
2013,09,28,06,05,1002.10
2013,09,28,06,06,1002.07
2013,09,28,06,07,1002.03
2013,09,28,06,08,1001.97
2013,09,28,06,09,1001.97
2013,09,28,06,10,1001.93
2013,09,28,06,11,1001.97
2013,09,28,06,12,1001.97
2013,09,28,06,13,1001.97
2013,09,28,06,14,1001.97
2013,09,28,06,15,1001.93
2013,09,28,06,16,1001.90
2013,09,28,06,17,1001.93
2013,09,28,06,18,1001.93
2013,09,28,06,19,1001.90
2013,09,28,06,20,1001.86
2013,09,28,06,21,1001.83
2013,09,28,06,22,1001.83
2013,09,28,06,23,1001.83
2013,09,28,06,24,1001.80
2013,09,28,06,25,1001.73
2013,09,28,06,26,1001.69
2013,09,28,06,27,1001.66
2013,09,28,06,28,1001.66
2013,09,28,06,29,1001.63
2013,09,28,06,30,1001.63
2013,09,28,06,31,1001.59
2013,09,28,06,32,1001.66
2013,09,28,06,33,1001.63
2013,09,28,06,34,1001.66
2013,09,28,06,35,1001.66
2013,09,28,06,36,1001.66
2013,09,28,06,37,1001.59
2013,09,28,06,38,1001.59
2013,09,28,06,39,1001.56
2013,09,28,06,40,1001.52
2013,09,28,06,41,1001.46
2013,09,28,06,42,1001.42
2013,09,28,06,43,1001.42
2013,09,28,06,44,1001.39
2013,09,28,06,45,1001.36
2013,09,28,06,46,1001.32
2013,09,28,06,47,1001.32
2013,09,28,06,48,1001.32
2013,09,28,06,49,1001.29
2013,09,28,06,50,1001.29
2013,09,28,06,51,1001.22
2013,09,28,06,52,1001.22
2013,09,28,06,53,1001.19
2013,09,28,06,54,1001.19
2013,09,28,06,55,1001.15
2013,09,28,06,56,1001.15
2013,09,28,06,57,1001.05
2013,09,28,06,58,1000.98
2013,09,28,06,59,1000.95
2013,09,28,07,00,1000.88
2013,09,28,07,01,1000.85
2013,09,28,07,02,1000.78
2013,09,28,07,03,1000.81
2013,09,28,07,04,1000.78
2013,09,28,07,05,1000.75
2013,09,28,07,06,1000.75
2013,09,28,07,07,1000.68
2013,09,28,07,08,1000.68
2013,09,28,07,09,1000.64
2013,09,28,07,10,1000.61
2013,09,28,07,11,1000.61
2013,09,28,07,12,1000.61
2013,09,28,07,13,1000.51
2013,09,28,07,14,1000.48
2013,09,28,07,15,1000.48
2013,09,28,07,16,1000.41
2013,09,28,07,17,1000.34
2013,09,28,07,18,1000.34
2013,09,28,07,19,1000.27
2013,09,28,07,20,1000.24
2013,09,28,07,21,1000.17
2013,09,28,07,22,1000.20
2013,09,28,07,23,1000.14
2013,09,28,07,24,1000.03
2013,09,28,07,25,1000.00
2013,09,28,07,26,1000.00
2013,09,28,07,27,1000.00
2013,09,28,07,28,1000.00
2013,09,28,07,29,1000.00
2013,09,28,07,30,999.97
2013,09,28,07,31,1000.00
2013,09,28,07,32,999.97
2013,09,28,07,33,999.93
2013,09,28,07,34,999.87
2013,09,28,07,35,999.87
2013,09,28,07,36,999.83
2013,09,28,07,37,999.76
2013,09,28,07,38,999.73
2013,09,28,07,39,999.66
2013,09,28,07,40,999.66
2013,09,28,07,41,999.76
2013,09,28,07,42,999.76
2013,09,28,07,43,999.73
2013,09,28,07,44,999.76
2013,09,28,07,45,999.70
2013,09,28,07,46,999.70
2013,09,28,07,47,999.63
2013,09,28,07,48,999.53
2013,09,28,07,49,999.53
2013,09,28,07,50,999.46
2013,09,28,07,51,999.46
2013,09,28,07,52,999.43
2013,09,28,07,53,999.43
2013,09,28,07,54,999.49
2013,09,28,07,55,999.43
2013,09,28,07,56,999.39
2013,09,28,07,57,999.43
2013,09,28,07,58,999.36
2013,09,28,07,59,999.28
2013,09,28,08,00,999.19
2013,09,28,08,01,999.19
2013,09,28,08,02,999.15
2013,09,28,08,03,999.19
2013,09,28,08,04,999.19
2013,09,28,08,05,999.19
2013,09,28,08,06,999.19
2013,09,28,08,07,999.15
2013,09,28,08,08,999.15
2013,09,28,08,09,999.05
2013,09,28,08,10,998.99
2013,09,28,08,11,998.95
2013,09,28,08,12,998.85
2013,09,28,08,13,998.78
2013,09,28,08,14,998.68
2013,09,28,08,15,998.68
2013,09,28,08,16,998.68
2013,09,28,08,17,998.61
2013,09,28,08,18,998.51
2013,09,28,08,19,998.54
2013,09,28,08,20,998.51
2013,09,28,08,21,998.51
2013,09,28,08,22,998.30
2013,09,28,08,23,998.21
2013,09,28,08,24,998.17
2013,09,28,08,25,998.14
2013,09,28,08,26,998.17
2013,09,28,08,27,998.07
2013,09,28,08,28,998.04
2013,09,28,08,29,997.94
2013,09,28,08,30,997.87
2013,09,28,08,31,997.83
2013,09,28,08,32,997.87
2013,09,28,08,33,997.87
2013,09,28,08,34,997.77
2013,09,28,08,35,997.77
2013,09,28,08,36,997.73
2013,09,28,08,37,997.73
2013,09,28,08,38,997.73
2013,09,28,08,39,997.77
2013,09,28,08,40,997.80
2013,09,28,08,41,997.80
2013,09,28,08,42,997.80
2013,09,28,08,43,997.80
2013,09,28,08,44,997.90
2013,09,28,08,45,997.90
2013,09,28,08,46,997.90
2013,09,28,08,47,997.94
2013,09,28,08,48,997.97
2013,09,28,08,49,997.97
2013,09,28,08,50,997.94
2013,09,28,08,51,998.00
2013,09,28,08,52,998.04
2013,09,28,08,53,998.14
2013,09,28,08,54,998.14
2013,09,28,08,55,998.21
2013,09,28,08,56,998.24
2013,09,28,08,57,998.21
2013,09,28,08,58,998.21
2013,09,28,08,59,998.24
2013,09,28,09,00,998.21
2013,09,28,09,01,998.17
2013,09,28,09,02,998.21
2013,09,28,09,03,998.17
2013,09,28,09,04,998.21
2013,09,28,09,05,998.31
2013,09,28,09,06,998.31
2013,09,28,09,07,998.31
2013,09,28,09,08,998.21
2013,09,28,09,09,998.08
2013,09,28,09,10,998.17
2013,09,28,09,11,998.24
2013,09,28,09,12,998.24
2013,09,28,09,13,998.16
2013,09,28,09,14,997.97
2013,09,28,09,15,997.72
2013,09,28,09,16,997.53
2013,09,28,09,17,997.43
2013,09,28,09,18,997.39
2013,09,28,09,19,997.44
2013,09,28,09,20,997.60
2013,09,28,09,21,997.73
2013,09,28,09,22,997.70
2013,09,28,09,23,997.59
2013,09,28,09,24,997.50
2013,09,28,09,25,997.33
2013,09,28,09,26,997.29
2013,09,28,09,27,997.22
2013,09,28,09,28,997.19
2013,09,28,09,29,997.12
2013,09,28,09,30,997.09
2013,09,28,09,31,997.19
2013,09,28,09,32,997.29
2013,09,28,09,33,997.33
2013,09,28,09,34,997.36
2013,09,28,09,35,997.43
2013,09,28,09,36,997.43
2013,09,28,09,37,997.39
2013,09,28,09,38,997.33
2013,09,28,09,39,997.36
2013,09,28,09,40,997.43
2013,09,28,09,41,997.46
2013,09,28,09,42,997.43
2013,09,28,09,43,997.39
2013,09,28,09,44,997.39
2013,09,28,09,45,997.29
2013,09,28,09,46,997.19
2013,09,28,09,47,997.12
2013,09,28,09,48,997.12
2013,09,28,09,49,997.19
2013,09,28,09,50,997.22
2013,09,28,09,51,997.19
2013,09,28,09,52,997.12
2013,09,28,09,53,997.12
2013,09,28,09,54,997.05
2013,09,28,09,55,997.05
2013,09,28,09,56,997.02
2013,09,28,09,57,996.92
2013,09,28,09,58,996.89
2013,09,28,09,59,996.89
2013,09,28,10,00,996.85
2013,09,28,10,01,996.89
2013,09,28,10,02,996.85
2013,09,28,10,03,996.85
2013,09,28,10,04,996.85
2013,09,28,10,05,996.78
2013,09,28,10,06,996.72
2013,09,28,10,07,996.65
2013,09,28,10,08,996.58
2013,09,28,10,09,996.55
2013,09,28,10,10,996.58
2013,09,28,10,11,996.68
2013,09,28,10,12,996.65
2013,09,28,10,13,996.61
2013,09,28,10,14,996.51
2013,09,28,10,15,996.51
2013,09,28,10,16,996.58
2013,09,28,10,17,996.55
2013,09,28,10,18,996.48
2013,09,28,10,19,996.38
2013,09,28,10,20,996.28
2013,09,28,10,21,996.28
2013,09,28,10,22,996.23
2013,09,28,10,23,996.14
2013,09,28,10,24,996.14
2013,09,28,10,25,996.04
2013,09,28,10,26,996.04
2013,09,28,10,27,996.07
2013,09,28,10,28,996.07
2013,09,28,10,29,995.97
2013,09,28,10,30,995.90
2013,09,28,10,31,995.90
2013,09,28,10,32,995.90
2013,09,28,10,33,995.90
2013,09,28,10,34,995.87
2013,09,28,10,35,995.97
2013,09,28,10,36,996.01
2013,09,28,10,37,995.97
2013,09,28,10,38,995.94
2013,09,28,10,39,995.87
2013,09,28,10,40,995.84
2013,09,28,10,41,995.69
2013,09,28,10,42,995.53
2013,09,28,10,43,995.53
2013,09,28,10,44,995.53
2013,09,28,10,45,995.63
2013,09,28,10,46,995.67
2013,09,28,10,47,995.70
2013,09,28,10,48,995.67
2013,09,28,10,49,995.60
2013,09,28,10,50,995.50
2013,09,28,10,51,995.46
2013,09,28,10,52,995.50
2013,09,28,10,53,995.46
2013,09,28,10,54,995.50
2013,09,28,10,55,995.43
2013,09,28,10,56,995.33
2013,09,28,10,57,995.33
2013,09,28,10,58,995.26
2013,09,28,10,59,995.26
2013,09,28,11,00,995.33
2013,09,28,11,01,995.36
2013,09,28,11,02,995.33
2013,09,28,11,03,995.33
2013,09,28,11,04,995.29
2013,09,28,11,05,995.33
2013,09,28,11,06,995.29
2013,09,28,11,07,995.23
2013,09,28,11,08,995.16
2013,09,28,11,09,995.09
2013,09,28,11,10,995.02
2013,09,28,11,11,995.06
2013,09,28,11,12,995.09
2013,09,28,11,13,995.09
2013,09,28,11,14,995.06
2013,09,28,11,15,994.99
2013,09,28,11,16,995.02
2013,09,28,11,17,994.99
2013,09,28,11,18,995.02
2013,09,28,11,19,995.02
2013,09,28,11,20,994.96
2013,09,28,11,21,994.96
2013,09,28,11,22,994.96
2013,09,28,11,23,994.92
2013,09,28,11,24,994.89
2013,09,28,11,25,994.89
2013,09,28,11,26,994.89
2013,09,28,11,27,994.85
2013,09,28,11,28,994.85
2013,09,28,11,29,994.82
2013,09,28,11,30,994.79
2013,09,28,11,31,994.79
2013,09,28,11,32,994.72
2013,09,28,11,33,994.68
2013,09,28,11,34,994.62
2013,09,28,11,35,994.55
2013,09,28,11,36,994.55
2013,09,28,11,37,994.58
2013,09,28,11,38,994.55
2013,09,28,11,39,994.48
2013,09,28,11,40,994.48
2013,09,28,11,41,994.41
2013,09,28,11,42,994.38
2013,09,28,11,43,994.31
2013,09,28,11,44,994.28
2013,09,28,11,45,994.31
2013,09,28,11,46,994.31
2013,09,28,11,47,994.28
2013,09,28,11,48,994.31
2013,09,28,11,49,994.31
2013,09,28,11,50,994.28
2013,09,28,11,51,994.28
2013,09,28,11,52,994.21
2013,09,28,11,53,994.21
2013,09,28,11,54,994.28
2013,09,28,11,55,994.28
2013,09,28,11,56,994.28
2013,09,28,11,57,994.24
2013,09,28,11,58,994.21
2013,09,28,11,59,994.18
2013,09,28,12,00,994.24
2013,09,28,12,01,994.24
2013,09,28,12,02,994.24
2013,09,28,12,03,994.18
2013,09,28,12,04,994.18
2013,09,28,12,05,994.18
2013,09,28,12,06,994.14
2013,09,28,12,07,994.11
2013,09,28,12,08,994.04
2013,09,28,12,09,993.97
2013,09,28,12,10,993.97
2013,09,28,12,11,993.87
2013,09,28,12,12,993.77
2013,09,28,12,13,993.80
2013,09,28,12,14,993.77
2013,09,28,12,15,993.77
2013,09,28,12,16,993.70
2013,09,28,12,17,993.67
2013,09,28,12,18,993.63
2013,09,28,12,19,993.67
2013,09,28,12,20,993.70
2013,09,28,12,21,993.67
2013,09,28,12,22,993.60
2013,09,28,12,23,993.57
2013,09,28,12,24,993.50
2013,09,28,12,25,993.47
2013,09,28,12,26,993.43
2013,09,28,12,27,993.47
2013,09,28,12,28,993.50
2013,09,28,12,29,993.36
2013,09,28,12,30,993.30
2013,09,28,12,31,993.33
2013,09,28,12,32,993.30
2013,09,28,12,33,993.26
2013,09,28,12,34,993.26
2013,09,28,12,35,993.19
2013,09,28,12,36,993.13
2013,09,28,12,37,993.09
2013,09,28,12,38,993.13
2013,09,28,12,39,993.06
2013,09,28,12,40,993.03
2013,09,28,12,41,993.06
2013,09,28,12,42,993.03
2013,09,28,12,43,992.99
2013,09,28,12,44,992.89
2013,09,28,12,45,992.72
2013,09,28,12,46,992.75
2013,09,28,12,47,992.75
2013,09,28,12,48,992.69
2013,09,28,12,49,992.58
2013,09,28,12,50,992.55
2013,09,28,12,51,992.62
2013,09,28,12,52,992.62
2013,09,28,12,53,992.55
2013,09,28,12,54,992.52
2013,09,28,12,55,992.62
2013,09,28,12,56,992.72
2013,09,28,12,57,992.92
2013,09,28,12,58,993.09
2013,09,28,12,59,993.25
2013,09,28,13,00,993.42
2013,09,28,13,01,993.60
2013,09,28,13,02,993.67
2013,09,28,13,03,993.74
2013,09,28,13,04,993.80
2013,09,28,13,05,993.91
2013,09,28,13,06,994.04
2013,09,28,13,07,994.07
2013,09,28,13,08,994.11
2013,09,28,13,09,994.18
2013,09,28,13,10,994.18
2013,09,28,13,11,994.18
2013,09,28,13,12,994.18
2013,09,28,13,13,994.18
2013,09,28,13,14,994.14
2013,09,28,13,15,994.14
2013,09,28,13,16,994.18
2013,09,28,13,17,994.14
2013,09,28,13,18,993.80
2013,09,28,13,19,993.57
2013,09,28,13,20,993.36
2013,09,28,13,21,993.57
2013,09,28,13,22,993.85
2013,09,28,13,23,994.10
2013,09,28,13,24,994.11
2013,09,28,13,25,993.91
2013,09,28,13,26,993.74
2013,09,28,13,27,993.70
2013,09,28,13,28,993.57
2013,09,28,13,29,993.57
2013,09,28,13,30,993.57
2013,09,28,13,31,993.57
2013,09,28,13,32,993.57
2013,09,28,13,33,993.40
2013,09,28,13,34,993.41
2013,09,28,13,35,993.53
2013,09,28,13,36,993.50
2013,09,28,13,37,993.47
2013,09,28,13,38,993.00
2013,09,28,13,39,993.23
2013,09,28,13,40,993.30
2013,09,28,13,41,993.13
2013,09,28,13,42,993.06
2013,09,28,13,43,993.03
2013,09,28,13,44,993.03
2013,09,28,13,45,993.03
2013,09,28,13,46,993.19
2013,09,28,13,47,993.07
2013,09,28,13,48,992.79
2013,09,28,13,49,993.04
2013,09,28,13,50,993.19
2013,09,28,13,51,993.23
2013,09,28,13,52,993.06
2013,09,28,13,53,993.23
2013,09,28,13,54,993.19
2013,09,28,13,55,993.13
2013,09,28,13,56,993.09
2013,09,28,13,57,993.13
2013,09,28,13,58,993.06
2013,09,28,13,59,992.92
2013,09,28,14,00,992.62
2013,09,28,14,01,992.46
2013,09,28,14,02,992.48
2013,09,28,14,03,992.31
2013,09,28,14,04,992.21
2013,09,28,14,05,992.14
2013,09,28,14,06,991.91
2013,09,28,14,07,991.91
2013,09,28,14,08,991.98
2013,09,28,14,09,992.04
2013,09,28,14,10,992.14
2013,09,28,14,11,992.14
2013,09,28,14,12,992.18
2013,09,28,14,13,992.14
2013,09,28,14,14,992.07
2013,09,28,14,15,991.94
2013,09,28,14,16,991.81
2013,09,28,14,17,991.43
2013,09,28,14,18,991.09
2013,09,28,14,19,991.09
2013,09,28,14,20,991.30
2013,09,28,14,21,991.33
2013,09,28,14,22,991.22
2013,09,28,14,23,991.06
2013,09,28,14,24,991.09
2013,09,28,14,25,991.09
2013,09,28,14,26,991.09
2013,09,28,14,27,990.99
2013,09,28,14,28,990.90
2013,09,28,14,29,990.79
2013,09,28,14,30,990.79
2013,09,28,14,31,990.76
2013,09,28,14,32,990.76
2013,09,28,14,33,990.72
2013,09,28,14,34,990.72
2013,09,28,14,35,990.82
2013,09,28,14,36,990.82
2013,09,28,14,37,990.79
2013,09,28,14,38,990.72
2013,09,28,14,39,990.65
2013,09,28,14,40,990.62
2013,09,28,14,41,990.69
2013,09,28,14,42,990.72
2013,09,28,14,43,990.82
2013,09,28,14,44,990.86
2013,09,28,14,45,990.93
2013,09,28,14,46,990.89
2013,09,28,14,47,990.96
2013,09,28,14,48,990.99
2013,09,28,14,49,990.93
2013,09,28,14,50,990.99
2013,09,28,14,51,991.03
2013,09,28,14,52,990.99
2013,09,28,14,53,991.06
2013,09,28,14,54,991.06
2013,09,28,14,55,991.06
2013,09,28,14,56,991.03
2013,09,28,14,57,991.06
2013,09,28,14,58,990.99
2013,09,28,14,59,990.88
2013,09,28,15,00,990.69
2013,09,28,15,01,990.82
2013,09,28,15,02,990.99
2013,09,28,15,03,990.99
2013,09,28,15,04,991.06
2013,09,28,15,05,991.20
2013,09,28,15,06,991.26
2013,09,28,15,07,991.20
2013,09,28,15,08,991.47
2013,09,28,15,09,991.70
2013,09,28,15,10,991.64
2013,09,28,15,11,991.74
2013,09,28,15,12,991.84
2013,09,28,15,13,991.87
2013,09,28,15,14,991.91
2013,09,28,15,15,991.87
2013,09,28,15,16,991.70
2013,09,28,15,17,991.74
2013,09,28,15,18,991.84
2013,09,28,15,19,991.93
2013,09,28,15,20,992.04
2013,09,28,15,21,992.08
2013,09,28,15,22,992.14
2013,09,28,15,23,992.11
2013,09,28,15,24,992.08
2013,09,28,15,25,992.08
2013,09,28,15,26,992.04
2013,09,28,15,27,992.11
2013,09,28,15,28,992.11
2013,09,28,15,29,992.08
2013,09,28,15,30,992.08
2013,09,28,15,31,992.08
2013,09,28,15,32,992.11
2013,09,28,15,33,992.14
2013,09,28,15,34,992.11
2013,09,28,15,35,992.11
2013,09,28,15,36,992.11
2013,09,28,15,37,992.14
2013,09,28,15,38,992.31
2013,09,28,15,39,992.45
2013,09,28,15,40,992.52
2013,09,28,15,41,992.52
2013,09,28,15,42,992.58
2013,09,28,15,43,992.65
2013,09,28,15,44,992.72
2013,09,28,15,45,992.72
2013,09,28,15,46,992.65
2013,09,28,15,47,992.75
2013,09,28,15,48,992.86
2013,09,28,15,49,992.79
2013,09,28,15,50,992.75
2013,09,28,15,51,992.69
2013,09,28,15,52,992.72
2013,09,28,15,53,992.65
2013,09,28,15,54,992.42
2013,09,28,15,55,992.18
2013,09,28,15,56,992.01
2013,09,28,15,57,992.11
2013,09,28,15,58,992.21
2013,09,28,15,59,992.21
2013,09,28,16,00,992.21
2013,09,28,16,01,992.18
2013,09,28,16,02,992.08
2013,09,28,16,03,992.08
2013,09,28,16,04,992.08
2013,09,28,16,05,992.25
2013,09,28,16,06,992.25
2013,09,28,16,07,992.31
2013,09,28,16,08,992.35
2013,09,28,16,09,992.38
2013,09,28,16,10,992.31
2013,09,28,16,11,992.38
2013,09,28,16,12,992.42
2013,09,28,16,13,992.35
2013,09,28,16,14,992.45
2013,09,28,16,15,992.58
2013,09,28,16,16,992.48
2013,09,28,16,17,992.52